TimeCDT,TemperatureF,Dew PointF,Humidity,Sea Level PressureIn,VisibilityMPH,Wind Direction,Wind SpeedMPH,Gust SpeedMPH,PrecipitationIn,Events,Conditions,WindDirDegrees,DateUTC
12:15 AM,62.6,32.0,32,30.20,0.8,Calm,Calm,-,N/A,,Unknown,0,2013-06-22 05:15:00
12:35 AM,62.6,32.0,32,30.20,2.5,Calm,Calm,-,N/A,,Clear,0,2013-06-22 05:35:00
12:55 AM,62.6,32.0,32,30.18,1.5,Calm,Calm,-,N/A,,Clear,0,2013-06-22 05:55:00
1:15 AM,62.6,32.0,32,30.18,1.2,Calm,Calm,-,N/A,,Clear,0,2013-06-22 06:15:00
1:35 AM,62.6,32.0,32,30.17,1.0,Calm,Calm,-,N/A,,Unknown,0,2013-06-22 06:35:00
1:55 AM,62.6,32.0,32,30.17,0.8,Calm,Calm,-,N/A,,Unknown,0,2013-06-22 06:55:00
2:15 AM,60.8,32.0,34,30.17,3.0,Calm,Calm,-,N/A,,Clear,0,2013-06-22 07:15:00
2:35 AM,62.6,32.0,32,30.16,1.8,SE,3.5,-,N/A,,Clear,140,2013-06-22 07:35:00
2:55 AM,62.6,32.0,32,30.17,8.0,Calm,Calm,-,N/A,,Clear,0,2013-06-22 07:55:00
3:15 AM,62.6,32.0,32,30.17,4.0,Calm,Calm,-,N/A,,Clear,0,2013-06-22 08:15:00
3:35 AM,60.8,32.0,34,30.17,4.0,Calm,Calm,-,N/A,,Clear,0,2013-06-22 08:35:00
3:55 AM,60.8,32.0,34,30.17,6.0,Calm,Calm,-,N/A,,Clear,0,2013-06-22 08:55:00
4:15 AM,60.8,32.0,34,30.18,4.0,Calm,Calm,-,N/A,,Clear,0,2013-06-22 09:15:00
4:35 AM,60.8,32.0,34,30.18,2.5,Calm,Calm,-,N/A,,Clear,0,2013-06-22 09:35:00
4:55 AM,60.8,32.0,34,30.19,2.5,Calm,Calm,-,N/A,,Clear,0,2013-06-22 09:55:00
5:15 AM,60.8,32.0,34,30.19,5.0,Calm,Calm,-,N/A,,Clear,0,2013-06-22 10:15:00
5:35 AM,60.8,32.0,34,30.19,4.0,Calm,Calm,-,N/A,,Clear,0,2013-06-22 10:35:00
5:55 AM,60.8,32.0,34,30.20,4.0,Calm,Calm,-,N/A,,Clear,0,2013-06-22 10:55:00
6:15 AM,62.6,32.0,32,30.20,5.0,Calm,Calm,-,N/A,,Clear,0,2013-06-22 11:15:00
6:35 AM,64.4,32.0,30,30.21,8.0,Calm,Calm,-,N/A,,Clear,0,2013-06-22 11:35:00
6:55 AM,64.4,32.0,30,30.22,7.0,Calm,Calm,-,N/A,,Clear,0,2013-06-22 11:55:00
7:15 AM,66.2,32.0,28,30.23,9.0,Calm,Calm,-,N/A,,Clear,0,2013-06-22 12:15:00
7:35 AM,71.6,32.0,23,30.23,10.0,Calm,Calm,-,N/A,,Clear,0,2013-06-22 12:35:00
7:55 AM,71.6,32.0,23,30.24,10.0,Calm,Calm,-,N/A,,Clear,0,2013-06-22 12:55:00
8:15 AM,73.4,32.0,22,30.24,10.0,South,3.5,-,N/A,,Clear,190,2013-06-22 13:15:00
8:35 AM,75.2,32.0,21,30.24,10.0,South,3.5,-,N/A,,Clear,170,2013-06-22 13:35:00
8:55 AM,75.2,32.0,21,30.24,10.0,South,5.8,-,N/A,,Clear,170,2013-06-22 13:55:00
9:15 AM,77.0,32.0,19,30.24,10.0,SSW,6.9,-,N/A,,Clear,210,2013-06-22 14:15:00
9:35 AM,78.8,32.0,18,30.25,10.0,South,5.8,-,N/A,,Clear,190,2013-06-22 14:35:00
9:55 AM,78.8,32.0,18,30.25,8.0,SSW,3.5,-,N/A,,Partly Cloudy,200,2013-06-22 14:55:00
10:15 AM,78.8,32.0,18,30.25,6.0,SW,5.8,-,N/A,,Mostly Cloudy,230,2013-06-22 15:15:00
10:35 AM,78.8,32.0,18,30.25,5.0,SW,3.5,-,N/A,,Partly Cloudy,220,2013-06-22 15:35:00
10:55 AM,80.6,32.0,17,30.25,5.0,SSW,4.6,-,N/A,,Clear,210,2013-06-22 15:55:00
11:15 AM,82.4,32.0,16,30.25,9.0,SW,5.8,-,N/A,,Clear,230,2013-06-22 16:15:00
11:35 AM,82.4,32.0,16,30.24,10.0,WSW,5.8,-,N/A,,Clear,240,2013-06-22 16:35:00
11:55 AM,84.2,32.0,15,30.24,10.0,WNW,5.8,-,N/A,,Clear,300,2013-06-22 16:55:00
12:15 PM,84.2,32.0,15,30.23,10.0,Variable,6.9,-,N/A,,Clear,0,2013-06-22 17:15:00
12:35 PM,84.2,32.0,15,30.22,10.0,NNW,3.5,-,N/A,,Clear,340,2013-06-22 17:35:00
12:55 PM,84.2,32.0,15,30.21,10.0,Variable,4.6,-,N/A,,Clear,0,2013-06-22 17:55:00
1:15 PM,86.0,32.0,14,30.20,10.0,West,3.5,-,N/A,,Clear,270,2013-06-22 18:15:00
1:35 PM,84.2,32.0,15,30.20,10.0,SSE,3.5,-,N/A,,Clear,150,2013-06-22 18:35:00
1:55 PM,86.0,32.0,14,30.19,10.0,Calm,Calm,-,N/A,,Clear,0,2013-06-22 18:55:00
2:15 PM,86.0,32.0,14,30.18,10.0,North,3.5,-,N/A,,Clear,350,2013-06-22 19:15:00
2:35 PM,87.8,32.0,14,30.18,10.0,West,4.6,-,N/A,,Clear,260,2013-06-22 19:35:00
2:55 PM,86.0,32.0,14,30.17,10.0,Variable,3.5,-,N/A,,Partly Cloudy,0,2013-06-22 19:55:00
3:15 PM,86.0,32.0,14,30.16,10.0,Calm,Calm,-,N/A,,Clear,0,2013-06-22 20:15:00
3:35 PM,87.8,32.0,14,30.15,10.0,Variable,3.5,-,N/A,,Clear,0,2013-06-22 20:35:00
3:55 PM,86.0,32.0,14,30.14,10.0,SW,4.6,-,N/A,,Partly Cloudy,220,2013-06-22 20:55:00
4:15 PM,84.2,32.0,15,30.14,10.0,Variable,3.5,-,N/A,,Clear,0,2013-06-22 21:15:00
4:35 PM,82.4,32.0,16,30.15,9.0,SE,9.2,-,N/A,,Mostly Cloudy,140,2013-06-22 21:35:00
4:55 PM,71.6,32.0,23,30.15,2.5,East,9.2,-,N/A,,Overcast,90,2013-06-22 21:55:00
5:15 PM,69.8,32.0,25,30.15,1.5,East,6.9,-,N/A,,Overcast,100,2013-06-22 22:15:00
5:35 PM,69.8,32.0,25,30.14,5.0,East,8.1,-,N/A,,Mostly Cloudy,80,2013-06-22 22:35:00
5:55 PM,71.6,32.0,23,30.13,9.0,East,4.6,-,N/A,,Partly Cloudy,80,2013-06-22 22:55:00
6:15 PM,71.6,32.0,23,30.13,10.0,Calm,Calm,-,N/A,,Clear,0,2013-06-22 23:15:00
6:35 PM,73.4,32.0,22,30.12,10.0,Calm,Calm,-,N/A,,Clear,0,2013-06-22 23:35:00
6:55 PM,73.4,32.0,22,30.12,10.0,Calm,Calm,-,N/A,,Clear,0,2013-06-22 23:55:00
7:15 PM,73.4,32.0,22,30.13,10.0,East,3.5,-,N/A,,Clear,80,2013-06-23 00:15:00
7:35 PM,73.4,32.0,22,30.14,10.0,Calm,Calm,-,N/A,,Partly Cloudy,0,2013-06-23 00:35:00
7:55 PM,71.6,32.0,23,30.14,6.0,ENE,3.5,-,N/A,,Partly Cloudy,70,2013-06-23 00:55:00
8:15 PM,71.6,32.0,23,30.14,9.0,East,4.6,-,N/A,,Clear,90,2013-06-23 01:15:00
8:35 PM,69.8,32.0,25,30.15,9.0,ENE,3.5,-,N/A,,Clear,70,2013-06-23 01:35:00
8:55 PM,69.8,32.0,25,30.15,9.0,East,5.8,-,N/A,,Clear,80,2013-06-23 01:55:00
9:15 PM,69.8,32.0,25,30.15,10.0,East,3.5,-,N/A,,Clear,100,2013-06-23 02:15:00
9:35 PM,68.0,32.0,26,30.16,10.0,Calm,Calm,-,N/A,,Scattered Clouds,0,2013-06-23 02:35:00
9:55 PM,69.8,32.0,25,30.16,10.0,Calm,Calm,-,N/A,,Mostly Cloudy,0,2013-06-23 02:55:00
10:15 PM,68.0,32.0,26,30.16,9.0,Calm,Calm,-,N/A,,Scattered Clouds,0,2013-06-23 03:15:00
10:35 PM,66.2,32.0,28,30.17,8.0,Calm,Calm,-,N/A,,Partly Cloudy,0,2013-06-23 03:35:00
10:55 PM,66.2,32.0,28,30.16,6.0,Calm,Calm,-,N/A,,Clear,0,2013-06-23 03:55:00
11:15 PM,66.2,32.0,28,30.17,7.0,Calm,Calm,-,N/A,,Clear,0,2013-06-23 04:15:00
11:35 PM,66.2,32.0,28,30.17,3.0,Calm,Calm,-,N/A,,Clear,0,2013-06-23 04:35:00
11:55 PM,64.4,32.0,30,30.17,4.0,Calm,Calm,-,N/A,,Clear,0,2013-06-23 04:55:00